Location: Trebic
(49.2170°N, 15.8830°E)
Time: 06:12:28
(UTC+02:00)

Transit 4A - Pass Details

Date: 26 August 2019
Orbit: 866 x 978 km, 66.8° (Epoch: 14 October)

Event Time Altitude Azimuth Distance (km) Brightness Sun altitude
Rises 22:21:13 0° 299° (WNW) 3,677 12.3 -21.2°
Reaches altitude 10° 22:25:02 10° 321° (NW) 2,718 11.5 -21.7°
Maximum altitude 22:28:43 16° 356° (N) 2,316 10.6 -22.1°
Drops below altitude 10° 22:32:22 10° 32° (NNE) 2,684 10.5 -22.4°
Sets 22:36:06 0° 55° (NE) 3,607 11.0 -22.8°
